AAY8249 KIFP-KDFW

Flight info

Callsign AAY8249
Flight time N/A
Altitude 35000
Route EED J6 DRK SJN J74 CNX TURKI VKTRY2
Aircraft B738/M-SDE2E3FGHIRWXY/LB1

Departure

Time 2026-05-03 22:44
Airport Laughlin Bullhead International Airport (KIFP)

Arrival

Time N/A
Airport Dallas Fort Worth International Airport (KDFW)
Time Latitude Longitude Altitude Speed Heading
2026-05-03 22:44 34.86101 -114.49504 11285 ft 316 kts 172°
2026-05-03 22:44 34.83942 -114.49025 11921 ft 321 kts 172°
2026-05-03 22:44 34.81712 -114.48529 12726 ft 322 kts 171°
2026-05-03 22:45 34.79621 -114.47592 13363 ft 334 kts 151°
2026-05-03 22:45 34.77862 -114.45681 13945 ft 348 kts 131°
2026-05-03 22:45 34.76696 -114.43044 14503 ft 363 kts 112°
2026-05-03 22:45 34.76303 -114.39963 15082 ft 375 kts 98°
2026-05-03 22:46 34.76197 -114.36765 15609 ft 382 kts 96°
2026-05-03 22:46 34.76141 -114.33509 16149 ft 388 kts 95°
2026-05-03 22:46 34.76096 -114.30205 16714 ft 393 kts 96°
2026-05-03 22:46 34.76044 -114.26858 17259 ft 398 kts 96°
2026-05-03 22:47 34.75982 -114.23468 17816 ft 404 kts 96°
2026-05-03 22:47 34.75909 -114.20037 18330 ft 408 kts 96°
2026-05-03 22:47 34.75828 -114.16563 18775 ft 414 kts 96°
2026-05-03 22:47 34.75740 -114.13037 19218 ft 420 kts 96°
2026-05-03 22:48 34.75647 -114.09472 19670 ft 425 kts 96°
2026-05-03 22:48 34.75551 -114.05892 20062 ft 432 kts 96°
2026-05-03 22:48 34.75452 -114.02216 20466 ft 438 kts 96°
2026-05-03 22:48 34.75350 -113.98498 20938 ft 442 kts 96°
2026-05-03 22:49 34.75246 -113.94693 21400 ft 447 kts 96°
2026-05-03 22:49 34.75142 -113.90949 21827 ft 451 kts 96°
2026-05-03 22:49 34.75035 -113.87121 22279 ft 457 kts 96°
2026-05-03 22:49 34.74925 -113.83237 22720 ft 461 kts 96°
2026-05-03 22:50 34.74815 -113.79333 23151 ft 464 kts 96°
2026-05-03 22:50 34.74699 -113.75380 23411 ft 471 kts 96°
2026-05-03 22:50 34.74581 -113.71388 23807 ft 473 kts 96°
2026-05-03 22:50 34.74463 -113.67395 24205 ft 475 kts 96°
2026-05-03 22:51 34.74342 -113.63366 24536 ft 479 kts 96°
2026-05-03 22:51 34.74218 -113.59300 24885 ft 483 kts 96°
2026-05-03 22:51 34.74129 -113.55202 25212 ft 488 kts 94°
2026-05-03 22:51 34.74148 -113.51066 25529 ft 493 kts 92°
2026-05-03 22:52 34.74227 -113.46876 25872 ft 496 kts 91°
2026-05-03 22:52 34.74326 -113.42667 26204 ft 500 kts 91°
2026-05-03 22:52 34.74425 -113.38442 26532 ft 503 kts 91°
2026-05-03 22:52 34.74513 -113.34172 26855 ft 506 kts 91°
2026-05-03 22:53 34.74590 -113.29894 27164 ft 509 kts 91°
2026-05-03 22:53 34.74656 -113.25586 27500 ft 510 kts 92°
2026-05-03 22:53 34.74719 -113.21270 27800 ft 513 kts 91°
2026-05-03 22:53 34.74777 -113.16910 28003 ft 518 kts 91°
2026-05-03 22:54 34.74828 -113.12517 28311 ft 521 kts 91°
2026-05-03 22:54 34.74878 -113.08106 28668 ft 522 kts 91°
2026-05-03 22:54 34.74928 -113.03680 28979 ft 525 kts 91°
2026-05-03 22:54 34.74977 -112.99226 29233 ft 529 kts 91°
2026-05-03 22:55 34.75026 -112.94744 29503 ft 532 kts 91°
2026-05-03 22:55 34.75074 -112.90241 29783 ft 533 kts 91°
2026-05-03 22:55 34.75121 -112.85724 30042 ft 535 kts 91°
2026-05-03 22:55 34.75166 -112.81187 30277 ft 538 kts 91°
2026-05-03 22:56 34.75211 -112.76643 30526 ft 539 kts 91°
2026-05-03 22:56 34.75253 -112.72084 30821 ft 539 kts 91°
2026-05-03 22:56 34.75294 -112.67538 31196 ft 537 kts 91°
2026-05-03 22:56 34.75333 -112.63004 31536 ft 536 kts 91°
2026-05-03 22:57 34.75370 -112.58472 31823 ft 536 kts 91°
2026-05-03 22:57 34.75405 -112.53936 32097 ft 537 kts 91°
2026-05-03 22:57 34.75439 -112.49394 32557 ft 537 kts 91°
2026-05-03 22:57 34.75470 -112.44854 32891 ft 536 kts 91°
2026-05-03 22:58 34.75500 -112.40318 33163 ft 537 kts 91°
2026-05-03 22:58 34.75528 -112.35778 33424 ft 537 kts 91°
2026-05-03 22:58 34.75555 -112.31241 33713 ft 536 kts 91°
2026-05-03 22:58 34.75577 -112.27330 33942 ft 524 kts 91°
2026-05-03 22:59 34.75602 -112.22962 33880 ft 510 kts 91°
2026-05-03 22:59 34.75624 -112.18701 33824 ft 497 kts 91°
2026-05-03 22:59 34.75643 -112.14558 33720 ft 483 kts 91°
2026-05-03 22:59 34.75660 -112.10540 33688 ft 468 kts 91°
2026-05-03 23:00 34.75676 -112.06694 33665 ft 454 kts 91°
2026-05-03 23:00 34.75689 -112.02909 33633 ft 441 kts 91°
2026-05-03 23:00 34.75701 -111.99239 33600 ft 427 kts 91°
2026-05-03 23:00 34.75711 -111.95684 33530 ft 414 kts 91°
2026-05-03 23:01 34.75720 -111.92225 33302 ft 405 kts 91°